NOAA 16 DEB, 41073

Orbit data source: Space-Track

NOAA 16 DEB, 41073 is space debris in SSO originally from a launch on Thu, 21 Sep 2000 UTC launched from the Air Force Western Test Range (AFWTR). Debris objects in space refer to the collection of defunct objects orbiting the Earth. Examples of debris include non-operational satellites, rocket bodies, and fragments generated from explosions, collisions, or faulty payload assembly.

Loading next visibility...
Identifier
41073, 2000-055AG
Orbit
SSO
Last TLE update
22 hours ago
Origin
Manufacturer
Unknown
Mission
Spacecraft
Bus & Motor
Unknown
Mass
Unknown
Launch date (UTC)
2000-09-21 (25 years ago)
Launch vehicle
Unknown
Launch site
Air Force Western Test Range (AFWTR)
Object type
Payload
Rocket body
Debris
Shape & HBR
Unknown
Radar Cross Section
Small (<0.1 m²)

Expand to show TLE details & history

TLE from 22 hours ago
0 NOAA 16 DEB
1 41073U 00055AG  25170.50900485  .00002477  00000-0  97482-3 0  9994
2 41073  98.7758 274.7788 0020895 156.6100 203.6037 14.30008435495497
Epoch: 2025-06-19T12:12Z
TLE epoch observation values (Epoch: 2025-06-19T12:12:58.019Z)
Latitude
0.00001°
Longitude
-176.43862°
Altitude
808.364 km
Speed
7.442 km/s
True Right ascension
18h 19m 06s
True Declination
0° 00' 00"
Sunlit
Object was in full shadow at epoch
Visualization orbit readout
Latitude
-52.68378°
Longitude
-163.91025°
Altitude
825.415 km
Speed
7.432 km/s
Apparent Right ascension
12h 54m 56s
Apparent Declination
-78° 43' 59"
Sunlit
Object is in full shadow
Visualization observer readout
Local Sidereal Time
20:42:44
Azimuth
194.061° SSW
Elevation
-44.204°
Doppler factor
1
Orbital elements
Apogee altitude
803.826 km
Perigee altitude
773.876 km
Semi-major axis
7,166.988 km
Eccentricity
0.00209
Inclination
98.7758°
RAAN
274.7788°
Arg. of periapsis
156.61°
True anomaly
Unknown
Mean anomaly
203.6037°
Eccentric anomaly
Unknown
Mean motion
3.57716 °/min
Orbital period
100.64 mins
BSTAR
0.00097482
Loading maneuver chart data...
Loading SW <> Apogee altitude chart data...
Loading historical data...
Loading historical data...
Loading historical data...
Loading historical data...
Loading historical data...
Loading historical data...
Loading historical data...

NOAA 16 DEB Visibility forecast

Observer location: undefined°, undefined°

Span
Click to sort rows by Start time (UTC) header in descending order
Start Az.
Max El. time (UTC)
Max El. Az.
Max El.
End time (UTC)
End Az.
8 mins2025-06-20 19:01:46.365Z37.161° NE2025-06-20 19:05:46.365Z90.043° ESE25.757°2025-06-20 19:09:46.365Z151.384° SSE
7 mins2025-06-20 20:42:46.365Z340.631° N2025-06-20 20:45:46.365Z286.315° WNW27.815°2025-06-20 20:49:46.365Z231.976° WSW
7 mins2025-06-21 06:20:46.365Z129.082° SE2025-06-21 06:23:46.365Z68.9° E34.381°2025-06-21 06:27:46.365Z3.867° NNE
6 mins2025-06-21 08:00:46.365Z228.05° WSW2025-06-21 08:03:46.365Z272.441° WNW20.547°2025-06-21 08:06:46.365Z311.372° NW
|